Starlink 11307

operational
NORAD ID: 61210 Int'l Des: 2024-171 Owner: SPXS Country: US Constellation: starlink
LEOCIRCULAR

Über Starlink 11307

Beschreibung wird geladen...

Live-Position

3D-Globus wird geladen...

Nächste Überflüge

Höhenverlauf

Altitude vs Time

uPlot chart will show altitude changes over time

Zweizeiliger Elementsatz

1 61210U 24171L 25304.56705113 -.00000307 00000-0 23195-5 0 9993
2 61210 53.1610 93.1514 0000491 48.9157 311.1903 15.69707272 64115
Epoch: 31. Okt. 2025 • Age: 11 hours

Aktueller Status

Höhe 359.7 km
Geschwindigkeit 7.70 km/s
Subsatellitenpunkt 16.78°N, 57.44°E
Startdatum 20. Sept. 2024
Alter 1.1 years
Typ internet

Technische Details

Klassifizierung Payload
Masse 960.00 kg
Trockenmasse 910.00 kg
Gesamtmasse 960.00 kg
Länge 0.30 m
Durchmesser 4.10 m
Spannweite 29.00 m
Form Box + pan
Hersteller SPXS
Bus-Typ Starlink V2MD
Phasenstatus In Orbit
Besitzer/Staat SPXS/US

Große Konstellationen

Loading constellations...